Location: Alfortville
(48.8058°N, 2.4204°E)
Time: 05:02:28
(UTC+00:00)

Cosmos 1980 Rocket - Pass Details

Date: 27 May 2022
Orbit: 827 x 851 km, 71.0° (Epoch: 05 July)

Event Time Altitude Azimuth Distance (km) Brightness Sun altitude
Rises 23:38:00 0° 284° (WNW) 3,398 5.6 -19.7°
Reaches altitude 10° 23:42:43 10° 319° (NW) 2,473 5.3 -19.8°
Maximum altitude 23:44:14 11° 335° (NNW) 2,405 5.5 -19.8°
Drops below altitude 10° 23:45:45 10° 351° (N) 2,479 5.8 -19.8°
Sets 23:50:31 0° 27° (NNE) 3,424 6.5 -19.8°
